KCRQ

McClellan-Palomar Airport

Airport
ICAO code
KCRQ
IATA Code
CLD
Summary
ICAO Region
NAM
ICAO Territory
Location

Carlsbad, California

Serving
San Diego County
Elevation
331 ft
Coordinates
33° 7' 36" N , 117° 16' 44" W
KCC
Metar
KCRQ 221653Z 15003KT 10SM CLR 14/10 A3022 RMK AO2 SLP233 T01390100

McClellan–Palomar Airport, known to locals as Palomar Airport, is a public airport located 5 km southeast of the central business district of Carlsbad, a city in San Diego County, California.

Climatology

Mediterranean (Köppen climate classification Csb)

Airport map

Aerial View

SKYbrary Partners:

Safety knowledge contributed by: